Meacham, OR

2:46 PM PDT on July 20, 2017 (GMT -0700)
Meacham

Weather History for KMEH - March, 2014

Change the Weather History Date:

Thursday, March 27, 2014

  Actual Average Record
Temperature  
Mean Temperature 36 °F -  
Max Temperature 39 °F 44 °F 75 °F (2015)
Min Temperature 32 °F 24 °F 12 °F (2009)
Degree Days  
Heating Degree Days 30    
Moisture  
Dew Point 33 °F    
Average Humidity 93    
Maximum Humidity 97    
Minimum Humidity 89    
Precipitation  
Precipitation 0.78 in - - ()
Sea Level Pressure  
Sea Level Pressure 29.74 in    
Wind  
Wind Speed 0 mph (West)    
Max Wind Speed 5 mph    
Max Gust Speed -    
Visibility 4 miles    
Events Fog , Rain , Snow    
Averages and records for this station are not official NWS values.
T = Trace of Precipitation, MM = Missing Value Source: NWS Daily Summary

Daily Weather History Graph

Daily Weather History Graph

Search for Another Location

Airport or City:

Trip Planner

Search our weather history database for the weather conditions in past years. The results will help you decide how hot, cold, wet, or windy it might be!

Date:

Astronomy

Mar. 27, 2014 Rise Set
Actual Time 6:43 AM PDT 7:15 PM PDT
Civil Twilight 6:13 AM PDT 7:45 PM PDT
Nautical Twilight 5:38 AM PDT 8:20 PM PDT
Astronomical Twilight 5:01 AM PDT 8:57 PM PDT
Moon 4:47 AM PDT (3/27) 4:00 PM PDT (3/27)
Length of Visible Light 13h 31m
Length of Day
12h 32m
Waning Crescent, 12% of the Moon is Illuminated
Mar 27
Waning Crescent
Mar 30
New
Apr 7
First Quarter
Apr 15
Full
Apr 22
Last Quarter

Hourly Weather History & Observations

Time (PDT) Temp. Windchill Dew Point Humidity Pressure Visibility Wind Dir Wind Speed Gust Speed Precip Events Conditions
12:48 AM 34.0 °F - 33.1 °F 96% 29.57 in 10.0 mi Calm Calm - 0.01 in   Overcast
12:56 AM 34.0 °F - 33.1 °F 96% 29.60 in 10.0 mi Calm Calm - 0.01 in   Overcast
1:56 AM 33.1 °F - 30.9 °F 92% 29.61 in 10.0 mi Calm Calm - 0.00 in   Clear
2:05 AM 32.0 °F - 30.0 °F 92% 29.58 in 10.0 mi Calm Calm - N/A   Scattered Clouds
2:30 AM 32.0 °F - 30.9 °F 96% 29.58 in 9.0 mi Calm Calm - N/A   Mostly Cloudy
2:42 AM 32.0 °F - 30.9 °F 96% 29.59 in 10.0 mi Calm Calm - N/A   Scattered Clouds
2:56 AM 32.0 °F - 30.9 °F 96% 29.62 in 10.0 mi Calm Calm - N/A   Partly Cloudy
3:56 AM 32.0 °F - 30.9 °F 96% 29.62 in 10.0 mi Calm Calm - N/A   Mostly Cloudy
4:56 AM 33.1 °F - 32.0 °F 96% 29.63 in 10.0 mi Calm Calm - N/A   Overcast
5:35 AM 33.1 °F - 32.0 °F 96% 29.61 in 10.0 mi Calm Calm - 0.00 in   Overcast
5:48 AM 33.1 °F - 32.0 °F 96% 29.62 in 1.8 mi Calm Calm - 0.00 in Snow Light Snow
5:56 AM 34.0 °F - 32.0 °F 92% 29.67 in 1.0 mi Calm Calm - 0.01 in Snow Light Snow
6:11 AM 34.0 °F - 32.0 °F 92% 29.62 in 0.8 mi Calm Calm - 0.02 in Snow Light Snow
6:20 AM 33.1 °F - 32.0 °F 96% 29.62 in 1.2 mi Calm Calm - 0.03 in Snow Light Snow
6:26 AM 33.1 °F - 32.0 °F 96% 29.62 in 2.0 mi Calm Calm - 0.03 in Snow Light Snow
6:33 AM 33.1 °F - 32.0 °F 96% 29.62 in 1.2 mi Calm Calm - 0.03 in Snow Light Snow
7:01 AM 33.1 °F - 32.0 °F 96% 29.63 in 3.0 mi Calm Calm - 0.00 in Snow Light Snow
7:20 AM 33.1 °F - 32.0 °F 96% 29.63 in 1.8 mi Calm Calm - 0.01 in Snow Light Snow
7:25 AM 33.1 °F - 32.0 °F 96% 29.63 in 2.0 mi Calm Calm - 0.01 in Snow Light Snow
7:34 AM 33.1 °F - 32.0 °F 96% 29.63 in 6.0 mi Calm Calm - 0.01 in Snow Light Snow
7:56 AM 34.0 °F - 33.1 °F 96% 29.69 in 6.0 mi Calm Calm - 0.01 in Snow Light Snow
8:30 AM 34.0 °F - 32.0 °F 92% 29.65 in 4.0 mi Calm Calm - 0.00 in Snow Light Snow
8:34 AM 34.0 °F 31.0 °F 32.0 °F 92% 29.65 in 1.8 mi Variable 3.5 mph - 0.00 in Snow Light Snow
8:44 AM 34.0 °F - 32.0 °F 92% 29.65 in 0.5 mi North - - 0.01 in Fog , Snow Snow
8:56 AM 34.0 °F - 32.0 °F 92% 29.70 in 0.5 mi Calm Calm - 0.03 in Fog , Snow Snow
9:16 AM 34.0 °F - 32.0 °F 92% 29.66 in 2.0 mi Calm Calm - 0.01 in Snow Light Snow
9:23 AM 34.0 °F - 32.0 °F 92% 29.66 in 2.5 mi Calm Calm - 0.01 in Snow Light Snow
9:32 AM 34.0 °F - 33.1 °F 96% 29.66 in 4.0 mi Calm Calm - 0.02 in Snow Light Snow
9:43 AM 35.1 °F - 33.1 °F 92% 29.67 in 2.0 mi Calm Calm - 0.02 in Snow Light Snow
9:56 AM 35.1 °F - 32.0 °F 89% 29.72 in 1.2 mi Calm Calm - 0.03 in Snow Light Snow
10:07 AM 34.0 °F - 32.0 °F 92% 29.68 in 0.8 mi Calm Calm - 0.01 in Snow Light Snow
10:56 AM 34.0 °F - 33.1 °F 96% 29.75 in 0.5 mi Calm Calm - 0.15 in Fog , Snow Snow
11:07 AM 34.0 °F - 33.1 °F 96% 29.70 in 0.5 mi Calm Calm - 0.02 in Fog , Snow Snow
11:56 AM 34.0 °F 31.0 °F 32.0 °F 92% 29.77 in 0.5 mi Variable 3.5 mph - 0.12 in Fog , Snow Snow
12:12 PM 34.0 °F - 32.0 °F 92% 29.72 in 1.2 mi Calm Calm - 0.02 in Snow Light Snow
12:31 PM 36.0 °F 32.1 °F 33.1 °F 89% 29.72 in 2.0 mi Variable 4.6 mph - 0.04 in Snow Light Snow
12:40 PM 36.0 °F - 34.0 °F 93% 29.72 in 5.0 mi Calm Calm - 0.04 in Snow Light Snow
12:56 PM 35.1 °F 32.2 °F 33.1 °F 92% 29.78 in 1.5 mi West 3.5 mph - 0.05 in Snow Light Snow
1:00 PM 35.1 °F - 33.1 °F 92% 29.73 in 0.8 mi Calm Calm - 0.02 in Snow Light Snow
1:09 PM 35.1 °F - 34.0 °F 96% 29.73 in 1.2 mi Calm Calm - 0.03 in Snow Light Snow
1:12 PM 35.1 °F - 33.1 °F 92% 29.73 in 3.0 mi Calm Calm - 0.03 in Snow Light Snow
1:16 PM 35.1 °F - 32.0 °F 89% 29.73 in 1.8 mi Calm Calm - 0.03 in Snow Light Snow
1:27 PM 35.1 °F - 33.1 °F 92% 29.73 in 2.0 mi Calm Calm - 0.06 in Snow Light Snow
1:33 PM 34.0 °F - 32.0 °F 92% 29.74 in 0.8 mi Calm Calm - 0.07 in Snow Light Snow
1:41 PM 34.0 °F - 32.0 °F 92% 29.74 in 0.5 mi Calm Calm - 0.10 in Fog , Snow Snow
1:56 PM 34.0 °F - 33.1 °F 96% 29.79 in 2.0 mi Calm Calm - 0.11 in Snow Light Snow
2:03 PM 34.0 °F - 33.1 °F 96% 29.74 in 9.0 mi Calm Calm - 0.00 in   Overcast
2:09 PM 34.0 °F - 32.0 °F 92% 29.74 in 10.0 mi Calm Calm - 0.00 in   Overcast
2:20 PM 35.1 °F - 33.1 °F 92% 29.74 in 6.0 mi Calm Calm - 0.00 in Rain Light Rain
2:33 PM 36.0 °F - 33.1 °F 89% 29.74 in 4.0 mi Calm Calm - 0.01 in Snow Light Snow
2:43 PM 35.1 °F - 33.1 °F 92% 29.74 in 2.0 mi Calm Calm - 0.03 in Rain Rain
2:56 PM 34.0 °F - 32.0 °F 92% 29.82 in 1.0 mi Calm Calm - 0.06 in Snow Light Snow
2:58 PM 34.0 °F - 32.0 °F 92% 29.76 in 0.8 mi Calm Calm - 0.01 in Snow Light Snow
3:17 PM 34.0 °F - 33.1 °F 96% 29.76 in 2.0 mi Calm Calm - 0.05 in Snow Light Snow
3:30 PM 35.1 °F - 33.1 °F 92% 29.76 in 1.2 mi Calm Calm - 0.06 in Snow Light Snow
3:34 PM 35.1 °F - 33.1 °F 92% 29.76 in 2.0 mi Calm Calm - 0.06 in Snow Light Snow
3:42 PM 36.0 °F - 33.1 °F 89% 29.75 in 5.0 mi Calm Calm - 0.06 in Snow Light Snow
3:51 PM 35.6 °F - 33.8 °F 93% 29.77 in 5.0 mi Calm Calm - 0.07 in Snow Light Snow
3:56 PM 35.1 °F - 33.1 °F 92% 29.82 in 2.5 mi Calm Calm - 0.07 in Snow Light Snow
3:59 PM 35.1 °F - 33.1 °F 92% 29.76 in 1.8 mi Calm Calm - 0.01 in Snow Light Snow
4:05 PM 37.0 °F - 35.1 °F 93% 29.76 in 3.0 mi Calm Calm - 0.01 in Snow Light Snow
4:17 PM 37.9 °F - 35.1 °F 89% 29.76 in 10.0 mi Calm Calm - 0.02 in   Overcast
4:49 PM 39.0 °F - 36.0 °F 89% 29.77 in 10.0 mi Calm Calm - 0.02 in   Overcast
4:56 PM 39.0 °F - 36.0 °F 89% 29.81 in 10.0 mi Calm Calm - 0.02 in Rain Light Rain
5:27 PM 37.0 °F 34.5 °F 35.1 °F 93% 29.79 in 2.5 mi Variable 3.5 mph - 0.03 in Rain Heavy Rain
5:39 PM 37.9 °F - 35.1 °F 89% 29.79 in 8.0 mi Calm Calm - 0.06 in Rain Light Rain
5:56 PM 37.9 °F - 35.1 °F 89% 29.84 in 10.0 mi Calm Calm - 0.06 in   Mostly Cloudy
6:43 PM 36.0 °F - 35.1 °F 97% 29.80 in 2.5 mi Calm Calm - 0.00 in Rain Light Rain
6:48 PM 37.0 °F - 35.1 °F 93% 29.80 in 3.0 mi Calm Calm - 0.00 in Rain Light Rain
6:56 PM 36.0 °F - 34.0 °F 93% 29.86 in 2.5 mi Calm Calm - 0.00 in Rain Light Rain
7:05 PM 36.0 °F - 34.0 °F 93% 29.81 in 1.5 mi Calm Calm - 0.00 in Rain Light Rain
7:11 PM 36.0 °F - 34.0 °F 93% 29.81 in 3.0 mi Calm Calm - 0.00 in   Overcast
7:56 PM 37.9 °F - 35.1 °F 89% 29.88 in 10.0 mi Calm Calm - 0.00 in Rain Light Rain
8:56 PM 36.0 °F - 34.0 °F 93% 29.91 in 10.0 mi Calm Calm - 0.04 in   Overcast
9:23 PM 35.1 °F - 34.0 °F 96% 29.87 in 10.0 mi Calm Calm - 0.01 in Rain Light Rain
9:32 PM 35.1 °F - 34.0 °F 96% 29.87 in 9.0 mi Calm Calm - 0.01 in   Overcast
9:45 PM 35.1 °F - 33.1 °F 92% 29.87 in 3.0 mi Calm Calm - 0.01 in   Overcast
9:52 PM 35.6 °F - 33.8 °F 93% 29.88 in 2.5 mi Calm Calm - 0.01 in   Overcast
9:56 PM 34.0 °F - 33.1 °F 96% 29.93 in 3.0 mi Calm Calm - 0.01 in   Overcast
10:11 PM 34.0 °F - 33.1 °F 96% 29.88 in 8.0 mi Calm Calm - N/A   Overcast
10:53 PM 33.8 °F - 32.0 °F 93% 29.90 in 10.0 mi Calm Calm - N/A   Overcast
10:56 PM 33.1 °F - 32.0 °F 96% 29.96 in 10.0 mi Calm Calm - N/A   Mostly Cloudy
11:23 PM 32.0 °F - 30.9 °F 96% 29.91 in 1.8 mi Calm Calm - N/A   Overcast
11:33 PM 32.0 °F - 30.0 °F 92% 29.91 in 0.5 mi Calm Calm - N/A Fog Fog
11:56 PM 32.0 °F - 30.9 °F 96% 29.98 in 0.5 mi Calm Calm - N/A Fog Fog